[[{"header":{"parameterUnit":"m.s-1","parameterCategory":1,"la1":30.2991,"la2":30.254,"lo1":-89.0895,"lo2":-89.0444,"dy":0.0017,"dx":0.0017,"nx":28,"ny":28,"refTime":"2024-09-02T03:00:00:Z","depth":0,"parameterNumber":2,"parameterNumberName":"U-component_of_WINDS"},"data":[0,0,0,0,0,0,0,0,0,0,0,0,0,0,0,0,0,0,0,0,0,0,0,0,0,0,0,0,0,0,0,0,0,0,0,0,0,0,0,0,0,0,0,0,0,0,0,0,0,0,0,0,0,0,0,0,0,0,-1.0665,-1.0663,0,-1.0524,-1.0522,-1.0521,-1.0447,-1.0446,-1.0446,-1.0446,-1.0302,-1.0299,-1.0295,0,0,0,0,0,0,0,0,0,0,0,0,0,-1.0872,-1.0869,-1.0665,-1.0663,-1.0662,-1.0524,-1.0522,-1.052,-1.0447,-1.0446,-1.0446,-1.0446,-1.0303,-1.0299,-1.0295,0,0,0,0,0,0,0,0,0,0,0,0,0,-1.0762,-1.0868,-1.0665,-1.0608,-1.0602,-1.0524,-1.0522,-1.052,-1.0447,-1.0446,-1.0446,-1.0446,-1.0305,-1.0299,-1.0294,-1.0263,0,0,-1.0277,-1.0274,0,0,0,0,0,0,0,0,-1.0768,-1.0754,-1.0618,-1.0612,-1.0605,-1.0503,-1.0542,-1.0434,-1.0447,-1.0506,-1.0446,-1.0446,-1.0369,-1.0358,-1.0332,-1.0256,-1.025,-1.0276,-1.0273,-1.0271,-1.0269,0,0,0,0,0,0,0,-1.0776,-1.076,-1.0609,-1.0617,-1.0608,-1.059,-1.0574,-1.0521,-1.044,-1.05,-1.0495,-1.0479,-1.0365,-1.0338,-1.0328,-1.0248,-1.0277,-1.0272,-1.0268,-1.0266,-1.0142,-1.0142,0,0,0,0,0,0,-1.0793,-1.0767,-1.0614,-1.0605,-1.0688,-1.0587,-1.0569,-1.0536,-1.044,-1.0426,-1.0479,-1.0476,-1.0347,-1.0335,-1.0323,-1.0281,-1.0271,-1.0265,-1.0262,-1.0141,-1.0142,-1.0142,0,0,0,0,0,0,-1.0798,-1.078,-1.0619,-1.0684,-1.0663,-1.0583,-1.0546,-1.0533,-1.0505,-1.0424,-1.041,-1.0466,-1.0347,-1.0331,-1.0279,-1.0275,-1.0263,-1.0258,-1.0141,-1.0142,-1.0142,-1.0198,0,0,0,0,0,0,-1.0804,-1.0782,-1.0769,-1.0685,-1.0659,-1.0577,-1.0546,-1.053,-1.0496,-1.049,-1.0408,-1.0394,-1.0345,-1.0288,-1.0273,-1.0267,-1.0253,-1.0141,-1.0141,-1.0142,-1.0196,-1.02,-1.0203,0,0,0,0,0,-1.0811,-1.079,-1.0769,-1.075,-1.0641,-1.0577,-1.0563,-1.0507,-1.0496,-1.0482,-1.0431,-1.0397,-1.0278,-1.0283,-1.0266,-1.0259,-1.0141,-1.0141,-1.0142,-1.0194,-1.0199,-1.0203,0,0,0,0,0,0,-1.0875,-1.0778,-1.0753,-1.0703,-1.0649,-1.0565,-1.0546,-1.0513,-1.0461,-1.0458,-1.0391,-1.0373,-1.0328,-1.0288,-1.0295,-1.0225,-1.0206,-1.0203,-1.0252,-1.0256,-1.026,-1.027,-1.0249,0,0,0,0,0,-1.0884,-1.084,-1.0757,-1.0721,-1.0695,-1.0626,-1.0596,-1.0557,-1.0498,-1.0475,-1.042,-1.0364,-1.0314,-1.0283,-1.0233,-1.019,-1.0172,-1.0177,-1.018,-1.0184,-1.0182,-1.0158,-1.016,-1.0142,-1.0142,-1.0142,0,0,-1.09,-1.0842,-1.0818,-1.0733,-1.0686,-1.0643,-1.0607,-1.0561,-1.0529,-1.0468,-1.0416,-1.0374,-1.0308,-1.0261,-1.0237,-1.0226,-1.0183,-1.0184,-1.0187,-1.0183,-1.0158,-1.016,-1.0162,-1.0142,-1.0142,-1.0142,0,0,-1.0909,-1.0859,-1.0825,-1.078,-1.071,-1.0664,-1.0656,-1.0577,-1.0546,-1.0493,-1.0447,-1.0408,-1.0323,-1.0278,-1.0245,-1.0239,-1.0206,-1.0224,-1.0243,-1.0221,-1.0222,-1.0223,-1.0222,-1.0222,-1.0222,-1.0223,-1.0223,0,-1.0938,-1.087,-1.0811,-1.0769,-1.0734,-1.0678,-1.0643,-1.0602,-1.052,-1.0497,-1.0485,-1.0379,-1.0331,-1.0273,-1.0272,-1.0246,-1.0236,-1.0233,-1.0226,-1.0227,-1.0227,-1.0225,-1.0225,-1.0225,-1.0225,-1.0225,-1.0224,0,-1.0911,-1.0864,-1.0845,-1.0768,-1.073,-1.0692,-1.0628,-1.0597,-1.0563,-1.0519,-1.0467,-1.0407,-1.0344,-1.0327,-1.0293,-1.0266,-1.0261,-1.0239,-1.022,-1.0232,-1.023,-1.0228,-1.0229,-1.0228,-1.0227,-1.0227,0,0,-1.0953,-1.0845,-1.0839,-1.0804,-1.0724,-1.0688,-1.0648,-1.0587,-1.0563,-1.0508,-1.0474,-1.0405,-1.0384,-1.0346,-1.0307,-1.0287,-1.0288,-1.0267,-1.0265,-1.0274,-1.0256,-1.0274,-1.0274,-1.0266,-1.0266,-1.0266,-1.0262,0,-1.0951,-1.0876,-1.0823,-1.077,-1.0727,-1.0675,-1.064,-1.0588,-1.0546,-1.0505,-1.0459,-1.0411,-1.0387,-1.0364,-1.0342,-1.0293,-1.0284,-1.0292,-1.0235,-1.0233,-1.0253,-1.0272,-1.029,-1.0289,-1.0261,-1.026,-1.026,0,-1.0937,-1.0885,-1.0828,-1.0754,-1.0734,-1.0704,-1.0645,-1.0606,-1.0547,-1.0518,-1.0476,-1.0436,-1.0393,-1.0378,-1.0319,-1.0326,-1.0299,-1.0272,-1.0271,-1.0263,-1.0248,-1.0266,-1.0288,-1.0288,-1.0258,-1.0258,-1.0258,0,-1.0975,-1.0891,-1.0846,-1.0818,-1.0731,-1.0711,-1.0674,-1.0614,-1.0582,-1.0531,-1.0509,-1.0454,-1.0423,-1.0382,-1.0328,-1.0322,-1.0275,-1.0255,-1.0251,-1.0252,-1.0243,-1.0245,-1.0262,-1.0226,-1.0226,-1.0226,-1.0226,0,-1.0978,-1.0945,-1.0863,-1.0835,-1.0797,-1.0738,-1.0702,-1.066,-1.0608,-1.0573,-1.0524,-1.0491,-1.0422,-1.0382,-1.034,-1.0299,-1.0285,-1.0261,-1.0251,-1.0266,-1.0269,-1.0248,-1.0247,-1.0226,-1.0226,-1.0226,-1.0226,0,-1.1014,-1.0957,-1.0905,-1.0828,-1.0807,-1.0783,-1.0717,-1.0689,-1.0646,-1.0601,-1.0587,-1.0519,-1.0469,-1.0412,-1.0343,-1.0315,-1.0277,-1.0261,-1.0297,-1.0291,-1.0291,-1.0292,-1.0295,-1.0293,-1.0258,-1.0259,-1.0259,0,-1.1019,-1.0993,-1.0913,-1.0886,-1.085,-1.0807,-1.0774,-1.0715,-1.0682,-1.0614,-1.0595,-1.0541,-1.0496,-1.0419,-1.0364,-1.0311,-1.0294,-1.0299,-1.0286,-1.0303,-1.0295,-1.0298,-1.0296,-1.0303,-1.0303,-1.0304,-1.0304,0,-1.1035,-1.1009,-1.0963,-1.0908,-1.0871,-1.0824,-1.0776,-1.0757,-1.0688,-1.0655,-1.0604,-1.0568,-1.0499,-1.0447,-1.0389,-1.0351,-1.0317,-1.0309,-1.0305,-1.0321,-1.0344,-1.0332,-1.0308,-1.0309,-1.0309,-1.0308,-1.0308,-1.0308,-1.1056,-1.1031,-1.0972,-1.0923,-1.0881,-1.0838,-1.0808,-1.0762,-1.0718,-1.0657,-1.0625,-1.0575,-1.0518,-1.0436,-1.04,-1.0361,-1.0349,-1.0343,-1.0342,-1.0342,-1.0347,-1.035,-1.0349,-1.0349,-1.0349,-1.0349,-1.0349,0,-1.107,-1.103,-1.0986,-1.0921,-1.0883,-1.0855,-1.08,-1.0771,-1.0728,-1.0677,-1.0634,-1.0577,-1.0527,-1.0468,-1.0415,-1.0395,-1.0378,-1.0383,-1.0384,-1.0377,-1.036,-1.0369,-1.0398,-1.0398,-1.0398,-1.0398,-1.0398,-1.0398,-1.1073,-1.103,-1.0997,-1.0934,-1.0893,-1.0844,-1.0816,-1.0776,-1.0736,-1.0674,-1.0633,-1.0595,-1.0543,-1.0486,-1.0439,-1.0424,-1.0407,-1.0417,-1.0397,-1.0382,-1.0378,-1.0374,-1.0382,-1.0413,-1.0413,-1.0417,-1.0417,-1.0417]},{"header":{"parameterUnit":"m.s-1","parameterCategory":1,"la1":30.2991,"la2":30.254,"lo1":-89.0895,"lo2":-89.0444,"dy":0.0017,"dx":0.0017,"nx":28,"ny":28,"refTime":"2024-09-02T03:00:00:Z","depth":0,"parameterNumber":3,"parameterNumberName":"V-component_of_WINDS"},"data":[0,0,0,0,0,0,0,0,0,0,0,0,0,0,0,0,0,0,0,0,0,0,0,0,0,0,0,0,0,0,0,0,0,0,0,0,0,0,0,0,0,0,0,0,0,0,0,0,0,0,0,0,0,0,0,0,0,0,0.1496,0.1496,0,0.1497,0.1497,0.1497,0.1487,0.1486,0.1486,0.1486,0.1487,0.1487,0.1487,0,0,0,0,0,0,0,0,0,0,0,0,0,0.1483,0.1483,0.1496,0.1496,0.1496,0.1497,0.1497,0.1497,0.1487,0.1486,0.1486,0.1486,0.1487,0.1487,0.1487,0,0,0,0,0,0,0,0,0,0,0,0,0,0.1487,0.1483,0.1496,0.1491,0.149,0.1497,0.1497,0.1497,0.1487,0.1486,0.1486,0.1485,0.1487,0.1487,0.1487,0.1499,0,0,0.1489,0.1489,0,0,0,0,0,0,0,0,0.1487,0.1487,0.1491,0.1491,0.1491,0.1491,0.1493,0.1497,0.1487,0.1488,0.1486,0.1485,0.1489,0.1489,0.149,0.1499,0.1499,0.1489,0.1489,0.1489,0.1489,0,0,0,0,0,0,0,0.1486,0.1487,0.1496,0.1491,0.1491,0.1488,0.1488,0.1494,0.1491,0.1488,0.1487,0.1487,0.1488,0.149,0.149,0.1499,0.1489,0.1489,0.1489,0.149,0.1514,0.1515,0,0,0,0,0,0,0.1487,0.1487,0.1496,0.1496,0.1488,0.1489,0.1489,0.1491,0.1491,0.149,0.1488,0.1487,0.1489,0.1489,0.149,0.1501,0.1489,0.149,0.149,0.1514,0.1514,0.1515,0,0,0,0,0,0,0.1487,0.1488,0.1496,0.1491,0.1492,0.1489,0.1492,0.1492,0.1493,0.1491,0.149,0.149,0.1489,0.1489,0.1496,0.1501,0.149,0.149,0.1513,0.1514,0.1514,0.1525,0,0,0,0,0,0,0.1486,0.1488,0.1493,0.1492,0.1492,0.1503,0.1493,0.1492,0.1494,0.1493,0.1492,0.1492,0.1488,0.1495,0.1496,0.1502,0.1491,0.1513,0.1514,0.1514,0.1524,0.1526,0.1528,0,0,0,0,0,0.1486,0.1496,0.1493,0.1494,0.1498,0.1503,0.1503,0.1499,0.1494,0.1498,0.1497,0.1492,0.1501,0.1496,0.1497,0.1503,0.1512,0.1513,0.1514,0.1524,0.1526,0.1527,0,0,0,0,0,0,0.1498,0.1496,0.1492,0.1502,0.1503,0.1501,0.1507,0.1502,0.1504,0.1503,0.1498,0.1498,0.1505,0.1505,0.15,0.1512,0.1505,0.1507,0.1512,0.1514,0.1516,0.1515,0.1491,0,0,0,0,0,0.1502,0.1506,0.1504,0.1513,0.1513,0.151,0.1512,0.1508,0.1509,0.1509,0.1508,0.1508,0.1511,0.1513,0.1515,0.1524,0.1523,0.1528,0.153,0.1531,0.1532,0.1535,0.1537,0.1518,0.1518,0.1518,0,0,0.151,0.1509,0.1512,0.1515,0.1515,0.1519,0.151,0.1515,0.1517,0.151,0.1515,0.1514,0.1514,0.1522,0.1525,0.1522,0.1537,0.1532,0.1534,0.1534,0.1536,0.1538,0.154,0.1518,0.1518,0.1518,0,0,0.1526,0.1526,0.1533,0.1533,0.1533,0.153,0.1532,0.153,0.1529,0.1535,0.1528,0.1531,0.1536,0.1536,0.1536,0.155,0.1545,0.1551,0.1559,0.1562,0.1564,0.1565,0.1569,0.157,0.1552,0.1552,0.1552,0,0.1536,0.1541,0.1537,0.1541,0.1542,0.1535,0.1541,0.1541,0.1542,0.1542,0.1538,0.1543,0.1543,0.1549,0.1552,0.1554,0.1554,0.1551,0.1564,0.1565,0.1566,0.157,0.1571,0.1553,0.1553,0.1553,0.1553,0,0.1552,0.1556,0.1561,0.1561,0.1563,0.1568,0.1564,0.1566,0.1562,0.156,0.1565,0.1564,0.1565,0.1566,0.1563,0.1572,0.1569,0.1565,0.1558,0.1569,0.1572,0.1573,0.1554,0.1554,0.1553,0.1553,0,0,0.1576,0.1573,0.1575,0.1574,0.1572,0.1575,0.1579,0.158,0.1581,0.1582,0.1584,0.1588,0.1583,0.1584,0.1581,0.1583,0.1592,0.1578,0.1578,0.158,0.16,0.1603,0.1604,0.1589,0.159,0.159,0.1599,0,0.1591,0.1598,0.1593,0.1601,0.1603,0.1596,0.1599,0.1598,0.1596,0.1597,0.1595,0.1597,0.1591,0.1591,0.1594,0.1591,0.1596,0.159,0.1591,0.1591,0.159,0.1606,0.1609,0.1618,0.1601,0.1601,0.1601,0,0.1608,0.1609,0.1616,0.1613,0.1613,0.1617,0.1616,0.1618,0.1616,0.1614,0.1614,0.1609,0.1613,0.1606,0.161,0.1605,0.1605,0.1604,0.1604,0.1603,0.1596,0.1604,0.1622,0.1623,0.1603,0.1603,0.1603,0,0.1623,0.1625,0.163,0.1629,0.1626,0.1628,0.1627,0.1624,0.1625,0.1624,0.1624,0.1624,0.1624,0.1624,0.1619,0.1615,0.1623,0.1616,0.162,0.162,0.1622,0.1621,0.1638,0.1623,0.1623,0.1623,0.1623,0,0.1639,0.1643,0.1636,0.1639,0.1643,0.1637,0.1642,0.164,0.1638,0.1639,0.1633,0.1635,0.1629,0.1629,0.1625,0.1628,0.1628,0.1626,0.1625,0.1626,0.1626,0.1625,0.1624,0.1624,0.1623,0.1623,0.1623,0,0.1655,0.1651,0.1655,0.1651,0.165,0.1653,0.1649,0.1651,0.1648,0.165,0.165,0.1645,0.1645,0.164,0.164,0.1637,0.1641,0.1639,0.1641,0.164,0.1644,0.1643,0.166,0.1661,0.1647,0.1647,0.1647,0,0.1665,0.1668,0.1664,0.1664,0.1663,0.1664,0.1664,0.1658,0.1658,0.1656,0.1658,0.1657,0.1657,0.1657,0.1653,0.1652,0.165,0.1656,0.165,0.165,0.1648,0.1648,0.1648,0.1657,0.1657,0.1657,0.1657,0,0.1682,0.1679,0.168,0.1678,0.1678,0.1677,0.1676,0.1677,0.167,0.1671,0.167,0.167,0.1669,0.1668,0.1666,0.1664,0.1659,0.1659,0.166,0.1661,0.1661,0.166,0.1644,0.1659,0.1658,0.1658,0.1658,0.1658,0.1695,0.1696,0.1693,0.1693,0.1691,0.169,0.1691,0.1687,0.1687,0.1686,0.1682,0.1683,0.1679,0.1676,0.1675,0.1674,0.1672,0.1673,0.1673,0.1673,0.1673,0.1662,0.1674,0.1674,0.1674,0.1674,0.1674,0,0.171,0.1708,0.1708,0.1705,0.1705,0.17,0.1698,0.1698,0.1698,0.1696,0.1695,0.1694,0.1693,0.1689,0.1687,0.1687,0.1685,0.1687,0.1687,0.1686,0.1677,0.1676,0.1689,0.1689,0.1689,0.1689,0.1689,0.1689,0.1718,0.172,0.1717,0.1718,0.1715,0.1715,0.1714,0.1712,0.171,0.1709,0.1708,0.1706,0.1702,0.17,0.1699,0.1697,0.1696,0.1699,0.1697,0.1688,0.1687,0.1685,0.1684,0.1699,0.1699,0.1706,0.1706,0.1706]}]]